| time (UTC) | temp C | wind direction | speed KPH | gust KPH | rain 1hr cm | rain 24hr cm | rain mn cm | humidity % | barometer mb |
| 20260507224040 | 11 | 314 | 1.6 | 4.8 | 0.00 | 0.00 | 0.00 | 77 | 1017.2 |
| 20260507223540 | 11 | 0 | 0.0 | 4.8 | 0.00 | 0.00 | 0.00 | 78 | 1017.2 |
| 20260507223059 | 10 | 308 | 0.0 | 4.8 | 0.00 | 0.00 | 0.00 | 78 | 1017.2 |
| 20260507222540 | 10 | 0 | 0.0 | 4.8 | 0.00 | 0.00 | 0.00 | 78 | 1017.2 |
| 20260507222043 | 10 | 0 | 1.6 | 4.8 | 0.00 | 0.00 | 0.00 | 78 | 1017.2 |
| 20260507221554 | 10 | 0 | 0.0 | 3.2 | 0.00 | 0.00 | 0.00 | 78 | 1017.1 |
| 20260507221040 | 11 | 0 | 0.0 | 0.0 | 0.00 | 0.00 | 0.00 | 77 | 1017.1 |
| 20260507220539 | 11 | 0 | 0.0 | 0.0 | 0.00 | 0.00 | 0.00 | 77 | 1017.2 |
| 20260507220052 | 11 | 0 | 0.0 | 0.0 | 0.00 | 0.00 | 0.00 | 77 | 1017.2 |
| 20260507215540 | 11 | 0 | 0.0 | 0.0 | 0.00 | 0.00 | 0.00 | 76 | 1017.2 |
| 20260507215041 | 11 | 0 | 0.0 | 0.0 | 0.00 | 0.00 | 0.00 | 76 | 1017.2 |
| 20260507214553 | 11 | 0 | 0.0 | 1.6 | 0.00 | 0.00 | 0.00 | 76 | 1017.0 |
| 20260507214042 | 11 | 0 | 0.0 | 3.2 | 0.00 | 0.00 | 0.00 | 76 | 1017.0 |
| 20260507213544 | 11 | 331 | 0.0 | 4.8 | 0.00 | 0.00 | 0.00 | 76 | 1017.0 |
| 20260507213056 | 11 | 331 | 0.0 | 4.8 | 0.00 | 0.00 | 0.00 | 75 | 1017.0 |
| 20260507212544 | 11 | 0 | 0.0 | 4.8 | 0.00 | 0.00 | 0.00 | 75 | 1016.8 |
| 20260507212041 | 11 | 0 | 0.0 | 3.2 | 0.00 | 0.00 | 0.00 | 74 | 1016.7 |
| 20260507211557 | 11 | 0 | 0.0 | 3.2 | 0.00 | 0.00 | 0.00 | 74 | 1016.7 |
| 20260507211040 | 12 | 0 | 0.0 | 3.2 | 0.00 | 0.00 | 0.00 | 73 | 1016.7 |
| 20260507210544 | 12 | 0 | 0.0 | 1.6 | 0.00 | 0.00 | 0.00 | 72 | 1016.7 |
| 20260507210107 | 12 | 0 | 0.0 | 3.2 | 0.00 | 0.00 | 0.00 | 72 | 1016.6 |
| 20260507205541 | 12 | 0 | 0.0 | 3.2 | 0.00 | 0.00 | 0.00 | 72 | 1016.5 |
| 20260507205038 | 12 | 0 | 0.0 | 3.2 | 0.00 | 0.00 | 0.00 | 71 | 1016.4 |
| 20260507204548 | 12 | 0 | 0.0 | 1.6 | 0.00 | 0.00 | 0.00 | 71 | 1016.4 |
| 20260507204038 | 12 | 0 | 0.0 | 1.6 | 0.00 | 0.00 | 0.00 | 71 | 1016.4 |
| 20260507203538 | 12 | 0 | 0.0 | 1.6 | 0.00 | 0.00 | 0.00 | 70 | 1016.4 |
| 20260507203053 | 12 | 0 | 0.0 | 4.8 | 0.00 | 0.00 | 0.00 | 70 | 1016.4 |
| 20260507202538 | 12 | 0 | 0.0 | 4.8 | 0.00 | 0.00 | 0.00 | 70 | 1016.4 |
| 20260507202038 | 13 | 0 | 1.6 | 4.8 | 0.00 | 0.00 | 0.00 | 69 | 1016.4 |
| 20260507201552 | 13 | 0 | 0.0 | 3.2 | 0.00 | 0.00 | 0.00 | 68 | 1016.3 |
| 20260507201039 | 13 | 0 | 0.0 | 3.2 | 0.00 | 0.00 | 0.00 | 68 | 1016.3 |
| 20260507200538 | 13 | 0 | 0.0 | 1.6 | 0.00 | 0.00 | 0.00 | 67 | 1016.1 |
| 20260507200055 | 13 | 0 | 0.0 | 1.6 | 0.00 | 0.00 | 0.00 | 67 | 1016.0 |
| 20260507195543 | 13 | 0 | 0.0 | 3.2 | 0.00 | 0.00 | 0.00 | 66 | 1016.1 |
| 20260507195036 | 13 | 0 | 0.0 | 4.8 | 0.00 | 0.00 | 0.00 | 66 | 1016.0 |
| 20260507194556 | 13 | 0 | 0.0 | 6.4 | 0.00 | 0.00 | 0.00 | 66 | 1015.9 |
| 20260507194039 | 14 | 0 | 1.6 | 6.4 | 0.00 | 0.00 | 0.00 | 65 | 1015.8 |
| 20260507193537 | 14 | 0 | 1.6 | 6.4 | 0.00 | 0.00 | 0.00 | 65 | 1015.8 |
| 20260507193052 | 14 | 0 | 0.0 | 4.8 | 0.00 | 0.00 | 0.00 | 65 | 1015.6 |
| 20260507192538 | 14 | 317 | 1.6 | 6.4 | 0.00 | 0.00 | 0.00 | 65 | 1015.4 |
| 20260507192036 | 14 | 0 | 1.6 | 6.4 | 0.00 | 0.00 | 0.00 | 64 | 1015.2 |
| 20260507191553 | 14 | 331 | 0.0 | 12.9 | 0.00 | 0.00 | 0.00 | 65 | 1015.2 |
| 20260507191036 | 15 | 0 | 1.6 | 12.9 | 0.00 | 0.00 | 0.00 | 64 | 1015.2 |
| 20260507190536 | 15 | 324 | 3.2 | 12.9 | 0.00 | 0.00 | 0.00 | 64 | 1015.1 |
| 20260507190057 | 15 | 0 | 1.6 | 12.9 | 0.00 | 0.00 | 0.00 | 64 | 1015.1 |
| 20260507185536 | 15 | 0 | 1.6 | 8.0 | 0.00 | 0.00 | 0.00 | 64 | 1015.0 |
| 20260507185038 | 15 | 265 | 0.0 | 8.0 | 0.00 | 0.00 | 0.00 | 64 | 1014.8 |
| 20260507184551 | 15 | 0 | 0.0 | 8.0 | 0.00 | 0.00 | 0.00 | 63 | 1014.7 |
| 20260507184039 | 15 | 285 | 0.0 | 8.0 | 0.00 | 0.00 | 0.00 | 63 | 1014.7 |
| 20260507183538 | 15 | 313 | 3.2 | 8.0 | 0.00 | 0.00 | 0.00 | 62 | 1014.7 |
| 20260507183109 | 15 | 291 | 0.0 | 6.4 | 0.00 | 0.00 | 0.00 | 62 | 1014.6 |
| 20260507182539 | 15 | 250 | 0.0 | 6.4 | 0.00 | 0.00 | 0.00 | 62 | 1014.5 |
| 20260507182039 | 15 | 267 | 1.6 | 6.4 | 0.00 | 0.00 | 0.00 | 61 | 1014.4 |
| 20260507181553 | 16 | 174 | 1.6 | 8.0 | 0.00 | 0.00 | 0.00 | 60 | 1014.3 |
| 20260507181035 | 16 | 0 | 0.0 | 19.3 | 0.00 | 0.00 | 0.00 | 60 | 1014.3 |
| 20260507180540 | 16 | 286 | 3.2 | 19.3 | 0.00 | 0.00 | 0.00 | 59 | 1014.2 |
| 20260507180054 | 16 | 327 | 1.6 | 9.7 | 0.00 | 0.00 | 0.00 | 59 | 1014.1 |
| 20260507175538 | 16 | 225 | 1.6 | 9.7 | 0.00 | 0.00 | 0.00 | 59 | 1014.1 |
| 20260507175037 | 16 | 288 | 0.0 | 9.7 | 0.00 | 0.00 | 0.00 | 59 | 1014.0 |
| 20260507174601 | 16 | 218 | 3.2 | 14.5 | 0.00 | 0.00 | 0.00 | 60 | 1013.9 |
| 20260507174042 | 16 | 245 | 3.2 | 14.5 | 0.00 | 0.00 | 0.00 | 59 | 1013.7 |
| 20260507173537 | 16 | 251 | 1.6 | 12.9 | 0.00 | 0.00 | 0.00 | 59 | 1013.7 |
| 20260507173053 | 16 | 0 | 1.6 | 12.9 | 0.00 | 0.00 | 0.00 | 59 | 1013.6 |
| 20260507172540 | 16 | 315 | 3.2 | 12.9 | 0.00 | 0.00 | 0.00 | 58 | 1013.6 |
| 20260507172039 | 16 | 0 | 1.6 | 11.3 | 0.00 | 0.00 | 0.00 | 58 | 1013.6 |
| 20260507171552 | 16 | 200 | 3.2 | 11.3 | 0.00 | 0.00 | 0.00 | 58 | 1013.5 |
| 20260507171041 | 16 | 237 | 1.6 | 9.7 | 0.00 | 0.00 | 0.00 | 58 | 1013.6 |
| 20260507170540 | 16 | 256 | 3.2 | 9.7 | 0.00 | 0.00 | 0.00 | 57 | 1013.7 |
| 20260507170056 | 16 | 280 | 1.6 | 6.4 | 0.00 | 0.00 | 0.00 | 60 | 1013.6 |
| 20260507165540 | 16 | 0 | 1.6 | 9.7 | 0.00 | 0.00 | 0.00 | 60 | 1013.6 |
| 20260507165040 | 17 | 299 | 0.0 | 14.5 | 0.00 | 0.00 | 0.00 | 60 | 1013.6 |
| 20260507164627 | 17 | 344 | 6.4 | 14.5 | 0.00 | 0.00 | 0.00 | 59 | 1013.7 |
| 20260507164041 | 17 | 270 | 1.6 | 8.0 | 0.00 | 0.00 | 0.00 | 59 | 1013.7 |
| 20260507163544 | 17 | 0 | 0.0 | 8.0 | 0.00 | 0.00 | 0.00 | 60 | 1013.7 |
| 20260507163056 | 17 | 18 | 3.2 | 12.9 | 0.00 | 0.00 | 0.00 | 59 | 1013.7 |
| 20260507162540 | 17 | 275 | 1.6 | 12.9 | 0.00 | 0.00 | 0.00 | 58 | 1013.6 |
| 20260507162040 | 17 | 229 | 3.2 | 20.9 | 0.00 | 0.00 | 0.00 | 58 | 1013.6 |
| 20260507161558 | 17 | 0 | 1.6 | 20.9 | 0.00 | 0.00 | 0.00 | 57 | 1013.5 |
| 20260507161044 | 17 | 0 | 1.6 | 17.7 | 0.00 | 0.00 | 0.00 | 56 | 1013.5 |
| 20260507160541 | 17 | 206 | 6.4 | 17.7 | 0.00 | 0.00 | 0.00 | 54 | 1013.5 |
| 20260507160049 | 17 | 211 | 3.2 | 11.3 | 0.00 | 0.00 | 0.00 | 56 | 1013.5 |
| 20260507155540 | 17 | 261 | 3.2 | 12.9 | 0.00 | 0.00 | 0.00 | 57 | 1013.5 |
| 20260507155040 | 17 | 225 | 4.8 | 12.9 | 0.00 | 0.00 | 0.00 | 57 | 1013.5 |
| 20260507154553 | 17 | 219 | 1.6 | 12.9 | 0.00 | 0.00 | 0.00 | 58 | 1013.5 |
| 20260507154041 | 17 | 195 | 1.6 | 9.7 | 0.00 | 0.00 | 0.00 | 57 | 1013.5 |
| 20260507153544 | 17 | 331 | 1.6 | 12.9 | 0.00 | 0.00 | 0.00 | 58 | 1013.4 |
| 20260507153045 | 17 | 320 | 1.6 | 12.9 | 0.00 | 0.00 | 0.00 | 58 | 1013.5 |
| 20260507152543 | 17 | 190 | 3.2 | 12.9 | 0.00 | 0.00 | 0.00 | 58 | 1013.5 |
| 20260507152044 | 17 | 0 | 4.8 | 12.9 | 0.00 | 0.00 | 0.00 | 57 | 1013.4 |
| 20260507151550 | 17 | 223 | 3.2 | 12.9 | 0.00 | 0.00 | 0.00 | 57 | 1013.4 |
| 20260507151044 | 17 | 331 | 1.6 | 12.9 | 0.00 | 0.00 | 0.00 | 57 | 1013.4 |
| 20260507150540 | 17 | 270 | 3.2 | 12.9 | 0.00 | 0.00 | 0.00 | 57 | 1013.3 |
| 20260507150051 | 17 | 218 | 3.2 | 16.1 | 0.00 | 0.00 | 0.00 | 57 | 1013.3 |
| 20260507145540 | 17 | 344 | 3.2 | 16.1 | 0.00 | 0.00 | 0.00 | 56 | 1013.3 |
| 20260507145041 | 17 | 267 | 3.2 | 12.9 | 0.00 | 0.00 | 0.00 | 57 | 1013.2 |
| 20260507144550 | 17 | 224 | 3.2 | 12.9 | 0.00 | 0.00 | 0.00 | 56 | 1013.2 |
| 20260507144041 | 17 | 333 | 3.2 | 12.9 | 0.00 | 0.00 | 0.00 | 56 | 1013.2 |
| 20260507143541 | 17 | 286 | 4.8 | 14.5 | 0.00 | 0.00 | 0.00 | 55 | 1013.2 |
| 20260507143114 | 17 | 283 | 4.8 | 14.5 | 0.00 | 0.00 | 0.00 | 54 | 1013.3 |
| 20260507142540 | 17 | 290 | 1.6 | 17.7 | 0.00 | 0.00 | 0.00 | 55 | 1013.3 |
| 20260507142040 | 17 | 0 | 3.2 | 17.7 | 0.00 | 0.00 | 0.00 | 55 | 1013.3 |
| 20260507141558 | 17 | 235 | 3.2 | 12.9 | 0.00 | 0.00 | 0.00 | 55 | 1013.3 |
| 20260507141040 | 17 | 249 | 1.6 | 14.5 | 0.00 | 0.00 | 0.00 | 55 | 1013.3 |
| 20260507140540 | 17 | 294 | 4.8 | 14.5 | 0.00 | 0.00 | 0.00 | 54 | 1013.3 |
| 20260507140048 | 18 | 271 | 1.6 | 12.9 | 0.00 | 0.00 | 0.00 | 54 | 1013.3 |
| 20260507135540 | 18 | 261 | 3.2 | 12.9 | 0.00 | 0.00 | 0.00 | 54 | 1013.2 |
| 20260507135040 | 18 | 263 | 3.2 | 12.9 | 0.00 | 0.00 | 0.00 | 53 | 1013.2 |
| 20260507134552 | 18 | 297 | 1.6 | 12.9 | 0.00 | 0.00 | 0.00 | 53 | 1013.2 |
| 20260507134040 | 18 | 164 | 1.6 | 16.1 | 0.00 | 0.00 | 0.00 | 53 | 1013.1 |
| 20260507133540 | 18 | 352 | 4.8 | 20.9 | 0.00 | 0.00 | 0.00 | 52 | 1013.1 |
| 20260507133053 | 18 | 226 | 8.0 | 20.9 | 0.00 | 0.00 | 0.00 | 51 | 1013.0 |
| 20260507132540 | 19 | 200 | 6.4 | 17.7 | 0.00 | 0.00 | 0.00 | 50 | 1013.1 |
| 20260507132040 | 19 | 258 | 3.2 | 19.3 | 0.00 | 0.00 | 0.00 | 52 | 1013.1 |
| 20260507131600 | 18 | 305 | 3.2 | 19.3 | 0.00 | 0.00 | 0.00 | 51 | 1013.0 |
| 20260507131040 | 19 | 5 | 6.4 | 19.3 | 0.00 | 0.00 | 0.00 | 49 | 1013.2 |
| 20260507130543 | 20 | 189 | 3.2 | 14.5 | 0.00 | 0.00 | 0.00 | 51 | 1013.2 |
| 20260507130056 | 19 | 299 | 4.8 | 14.5 | 0.00 | 0.00 | 0.00 | 51 | 1013.2 |
| 20260507125541 | 19 | 245 | 1.6 | 16.1 | 0.00 | 0.00 | 0.00 | 50 | 1013.2 |
| 20260507125041 | 19 | 319 | 4.8 | 17.7 | 0.00 | 0.00 | 0.00 | 52 | 1013.0 |
| 20260507124557 | 19 | 198 | 6.4 | 24.1 | 0.00 | 0.00 | 0.00 | 52 | 1013.0 |
| 20260507124040 | 19 | 264 | 4.8 | 24.1 | 0.00 | 0.00 | 0.00 | 51 | 1013.1 |
| 20260507123540 | 19 | 327 | 9.7 | 24.1 | 0.00 | 0.00 | 0.00 | 50 | 1013.1 |
| 20260507123047 | 19 | 202 | 6.4 | 17.7 | 0.00 | 0.00 | 0.00 | 50 | 1013.0 |
| 20260507122539 | 18 | 195 | 6.4 | 17.7 | 0.00 | 0.00 | 0.00 | 52 | 1012.9 |
| 20260507122040 | 18 | 252 | 3.2 | 12.9 | 0.00 | 0.00 | 0.00 | 54 | 1013.0 |
| 20260507121553 | 18 | 352 | 4.8 | 16.1 | 0.00 | 0.00 | 0.00 | 55 | 1013.1 |
| 20260507121041 | 18 | 288 | 4.8 | 16.1 | 0.00 | 0.00 | 0.00 | 54 | 1013.0 |
| 20260507120539 | 18 | 231 | 3.2 | 17.7 | 0.00 | 0.00 | 0.00 | 54 | 1013.1 |
| 20260507120054 | 18 | 291 | 3.2 | 17.7 | 0.00 | 0.00 | 0.00 | 53 | 1013.0 |
| 20260507115540 | 17 | 195 | 3.2 | 17.7 | 0.00 | 0.00 | 0.00 | 55 | 1013.1 |
| 20260507115043 | 17 | 273 | 4.8 | 20.9 | 0.00 | 0.00 | 0.00 | 55 | 1013.2 |
| 20260507114605 | 17 | 240 | 8.0 | 20.9 | 0.00 | 0.00 | 0.00 | 54 | 1013.3 |
| 20260507114040 | 17 | 260 | 3.2 | 16.1 | 0.00 | 0.00 | 0.00 | 55 | 1013.3 |
| 20260507113540 | 17 | 232 | 3.2 | 16.1 | 0.00 | 0.00 | 0.00 | 56 | 1013.3 |
| 20260507113105 | 18 | 284 | 6.4 | 16.1 | 0.00 | 0.00 | 0.00 | 54 | 1013.4 |
| 20260507112541 | 17 | 119 | 4.8 | 17.7 | 0.00 | 0.00 | 0.00 | 56 | 1013.4 |
| 20260507112042 | 17 | 288 | 3.2 | 17.7 | 0.00 | 0.00 | 0.00 | 56 | 1013.3 |
| 20260507111553 | 17 | 257 | 3.2 | 12.9 | 0.00 | 0.00 | 0.00 | 54 | 1013.5 |
| 20260507111042 | 17 | 5 | 1.6 | 16.1 | 0.00 | 0.00 | 0.00 | 55 | 1013.4 |
| 20260507110540 | 18 | 250 | 3.2 | 16.1 | 0.00 | 0.00 | 0.00 | 54 | 1013.3 |
| 20260507110049 | 18 | 214 | 4.8 | 20.9 | 0.00 | 0.00 | 0.00 | 53 | 1013.4 |
| 20260507105540 | 18 | 252 | 6.4 | 20.9 | 0.00 | 0.00 | 0.00 | 54 | 1013.5 |
| 20260507105040 | 18 | 180 | 6.4 | 20.9 | 0.00 | 0.00 | 0.00 | 53 | 1013.4 |
| 20260507104548 | 18 | 254 | 4.8 | 19.3 | 0.00 | 0.00 | 0.00 | 54 | 1013.4 |
| 20260507104042 | 18 | 209 | 6.4 | 19.3 | 0.00 | 0.00 | 0.00 | 53 | 1013.5 |
| 20260507103540 | 18 | 154 | 3.2 | 16.1 | 0.00 | 0.00 | 0.00 | 54 | 1013.5 |
| 20260507103051 | 18 | 192 | 6.4 | 24.1 | 0.00 | 0.00 | 0.00 | 54 | 1013.5 |
| 20260507102543 | 17 | 275 | 4.8 | 24.1 | 0.00 | 0.00 | 0.00 | 57 | 1013.5 |
| 20260507102040 | 17 | 259 | 6.4 | 16.1 | 0.00 | 0.00 | 0.00 | 55 | 1013.7 |
| 20260507101548 | 17 | 246 | 4.8 | 16.1 | 0.00 | 0.00 | 0.00 | 57 | 1013.7 |
| 20260507101039 | 17 | 221 | 4.8 | 16.1 | 0.00 | 0.00 | 0.00 | 59 | 1013.7 |
| 20260507100540 | 17 | 284 | 3.2 | 19.3 | 0.00 | 0.00 | 0.00 | 57 | 1013.7 |
| 20260507100056 | 17 | 323 | 4.8 | 24.1 | 0.00 | 0.00 | 0.00 | 57 | 1013.7 |
| 20260507095541 | 17 | 289 | 6.4 | 24.1 | 0.00 | 0.00 | 0.00 | 56 | 1013.7 |
| 20260507095036 | 17 | 179 | 6.4 | 20.9 | 0.00 | 0.00 | 0.00 | 55 | 1013.6 |
| 20260507094549 | 17 | 207 | 6.4 | 25.7 | 0.00 | 0.00 | 0.00 | 57 | 1013.6 |
| 20260507094042 | 17 | 234 | 8.0 | 25.7 | 0.00 | 0.00 | 0.00 | 57 | 1013.7 |
| 20260507093539 | 17 | 198 | 6.4 | 24.1 | 0.00 | 0.00 | 0.00 | 58 | 1013.6 |
| 20260507093052 | 16 | 265 | 9.7 | 24.1 | 0.00 | 0.00 | 0.00 | 57 | 1013.7 |
| 20260507092541 | 16 | 208 | 6.4 | 14.5 | 0.00 | 0.00 | 0.00 | 59 | 1013.6 |
| 20260507092042 | 16 | 304 | 4.8 | 22.5 | 0.00 | 0.00 | 0.00 | 59 | 1013.6 |
| 20260507091549 | 16 | 202 | 6.4 | 22.5 | 0.00 | 0.00 | 0.00 | 60 | 1013.5 |
| 20260507091040 | 16 | 259 | 6.4 | 22.5 | 0.00 | 0.00 | 0.00 | 60 | 1013.6 |
| 20260507090541 | 16 | 274 | 6.4 | 22.5 | 0.00 | 0.00 | 0.00 | 59 | 1013.5 |
| 20260507090050 | 16 | 217 | 4.8 | 17.7 | 0.00 | 0.00 | 0.00 | 61 | 1013.5 |
| 20260507085540 | 16 | 277 | 4.8 | 22.5 | 0.00 | 0.00 | 0.00 | 61 | 1013.5 |
| 20260507085039 | 16 | 290 | 4.8 | 22.5 | 0.00 | 0.00 | 0.00 | 61 | 1013.4 |
| 20260507084600 | 16 | 343 | 6.4 | 17.7 | 0.00 | 0.00 | 0.00 | 60 | 1013.4 |
| 20260507084039 | 16 | 286 | 3.2 | 19.3 | 0.00 | 0.00 | 0.00 | 62 | 1013.3 |
| 20260507083542 | 16 | 328 | 4.8 | 19.3 | 0.00 | 0.00 | 0.00 | 62 | 1013.3 |
| 20260507083053 | 16 | 284 | 6.4 | 25.7 | 0.00 | 0.00 | 0.00 | 62 | 1013.3 |
| 20260507082539 | 16 | 198 | 6.4 | 25.7 | 0.00 | 0.00 | 0.00 | 60 | 1013.3 |
| 20260507082039 | 16 | 321 | 4.8 | 16.1 | 0.00 | 0.00 | 0.00 | 63 | 1013.2 |
| 20260507081558 | 16 | 213 | 3.2 | 19.3 | 0.00 | 0.00 | 0.00 | 64 | 1013.1 |
| 20260507081039 | 16 | 213 | 4.8 | 19.3 | 0.00 | 0.00 | 0.00 | 62 | 1013.1 |
| 20260507080540 | 16 | 246 | 3.2 | 17.7 | 0.00 | 0.00 | 0.00 | 64 | 1013.1 |
| 20260507080052 | 15 | 279 | 3.2 | 16.1 | 0.00 | 0.00 | 0.00 | 65 | 1013.1 |
| 20260507075540 | 15 | 344 | 3.2 | 16.1 | 0.00 | 0.00 | 0.00 | 66 | 1013.0 |
| 20260507075042 | 15 | 313 | 3.2 | 19.3 | 0.00 | 0.00 | 0.00 | 64 | 1013.0 |
| 20260507074556 | 15 | 350 | 4.8 | 19.3 | 0.00 | 0.00 | 0.00 | 65 | 1013.0 |
| 20260507074043 | 15 | 188 | 6.4 | 19.3 | 0.00 | 0.00 | 0.00 | 64 | 1013.1 |
| 20260507073540 | 15 | 5 | 4.8 | 12.9 | 0.00 | 0.00 | 0.00 | 65 | 1012.9 |
| 20260507073054 | 15 | 0 | 3.2 | 11.3 | 0.00 | 0.00 | 0.00 | 66 | 1012.9 |
| 20260507072540 | 15 | 243 | 4.8 | 9.7 | 0.00 | 0.00 | 0.00 | 66 | 1012.9 |
| 20260507072042 | 15 | 238 | 3.2 | 14.5 | 0.00 | 0.00 | 0.00 | 66 | 1013.0 |
| 20260507071550 | 15 | 199 | 4.8 | 16.1 | 0.00 | 0.00 | 0.00 | 66 | 1013.0 |
| 20260507071040 | 15 | 0 | 1.6 | 16.1 | 0.00 | 0.00 | 0.00 | 68 | 1013.0 |
| 20260507070540 | 15 | 173 | 3.2 | 16.1 | 0.00 | 0.00 | 0.00 | 68 | 1013.0 |
| 20260507070051 | 14 | 317 | 4.8 | 14.5 | 0.00 | 0.00 | 0.00 | 69 | 1012.9 |
| 20260507065540 | 14 | 274 | 3.2 | 12.9 | 0.00 | 0.00 | 0.00 | 70 | 1013.0 |
| 20260507065039 | 14 | 273 | 3.2 | 12.9 | 0.00 | 0.00 | 0.00 | 69 | 1012.9 |
| 20260507064555 | 15 | 290 | 3.2 | 11.3 | 0.00 | 0.00 | 0.00 | 69 | 1012.9 |
| 20260507064043 | 15 | 223 | 3.2 | 11.3 | 0.00 | 0.00 | 0.00 | 69 | 1013.0 |
| 20260507063540 | 14 | 323 | 3.2 | 11.3 | 0.00 | 0.00 | 0.00 | 69 | 1013.0 |
| 20260507063056 | 14 | 198 | 3.2 | 9.7 | 0.00 | 0.00 | 0.00 | 69 | 1013.1 |
| 20260507062540 | 14 | 293 | 1.6 | 9.7 | 0.00 | 0.00 | 0.00 | 71 | 1013.1 |
| 20260507062040 | 14 | 277 | 1.6 | 11.3 | 0.00 | 0.00 | 0.00 | 69 | 1013.0 |
| 20260507061552 | 13 | 291 | 1.6 | 11.3 | 0.00 | 0.00 | 0.00 | 72 | 1013.0 |
| 20260507061040 | 13 | 226 | 1.6 | 4.8 | 0.00 | 0.00 | 0.00 | 74 | 1013.0 |
| 20260507060538 | 13 | 283 | 1.6 | 6.4 | 0.00 | 0.00 | 0.00 | 73 | 1013.0 |
| 20260507060059 | 13 | 317 | 1.6 | 6.4 | 0.00 | 0.00 | 0.00 | 75 | 1013.0 |
| 20260507055540 | 12 | 279 | 1.6 | 6.4 | 0.00 | 0.00 | 0.00 | 76 | 1012.9 |
| 20260507055039 | 12 | 325 | 1.6 | 6.4 | 0.00 | 0.00 | 0.00 | 77 | 1012.9 |
| 20260507054554 | 12 | 315 | 1.6 | 4.8 | 0.00 | 0.00 | 0.00 | 77 | 1012.9 |
| 20260507054042 | 12 | 274 | 0.0 | 4.8 | 0.00 | 0.00 | 0.00 | 77 | 1012.9 |
| 20260507053542 | 12 | 0 | 0.0 | 4.8 | 0.00 | 0.00 | 0.00 | 78 | 1012.9 |
| 20260507053052 | 12 | 300 | 0.0 | 4.8 | 0.00 | 0.00 | 0.00 | 78 | 1012.8 |
| 20260507052544 | 12 | 311 | 0.0 | 6.4 | 0.00 | 0.00 | 0.00 | 80 | 1012.8 |
| 20260507052040 | 11 | 322 | 0.0 | 8.0 | 0.00 | 0.00 | 0.00 | 80 | 1012.7 |
| 20260507051553 | 11 | 324 | 0.0 | 8.0 | 0.00 | 0.00 | 0.00 | 80 | 1012.5 |
| 20260507051041 | 11 | 0 | 1.6 | 4.8 | 0.00 | 0.00 | 0.00 | 80 | 1012.5 |
| 20260507050540 | 11 | 0 | 0.0 | 3.2 | 0.00 | 0.00 | 0.00 | 81 | 1012.5 |
| 20260507050053 | 11 | 286 | 0.0 | 3.2 | 0.00 | 0.00 | 0.00 | 81 | 1012.4 |
| 20260507045542 | 11 | 0 | 0.0 | 3.2 | 0.00 | 0.00 | 0.00 | 81 | 1012.4 |
| 20260507045039 | 11 | 0 | 0.0 | 3.2 | 0.00 | 0.00 | 0.00 | 81 | 1012.3 |
| 20260507044605 | 11 | 273 | 0.0 | 3.2 | 0.00 | 0.00 | 0.00 | 81 | 1012.2 |
| 20260507044040 | 11 | 0 | 0.0 | 3.2 | 0.00 | 0.00 | 0.00 | 81 | 1012.2 |
| 20260507043540 | 11 | 313 | 0.0 | 3.2 | 0.00 | 0.00 | 0.00 | 81 | 1012.1 |
| 20260507043102 | 11 | 309 | 0.0 | 3.2 | 0.00 | 0.00 | 0.00 | 81 | 1012.1 |
| 20260507042541 | 11 | 0 | 0.0 | 3.2 | 0.00 | 0.00 | 0.00 | 81 | 1012.1 |
| 20260507042044 | 11 | 0 | 0.0 | 3.2 | 0.00 | 0.00 | 0.00 | 81 | 1012.0 |
| 20260507041557 | 11 | 0 | 0.0 | 4.8 | 0.00 | 0.00 | 0.00 | 81 | 1011.9 |
| 20260507041041 | 11 | 0 | 0.0 | 4.8 | 0.00 | 0.00 | 0.00 | 81 | 1011.8 |
| 20260507040540 | 11 | 304 | 0.0 | 4.8 | 0.00 | 0.00 | 0.00 | 80 | 1011.8 |
| 20260507040054 | 11 | 0 | 0.0 | 1.6 | 0.00 | 0.00 | 0.00 | 80 | 1011.8 |
| 20260507035539 | 11 | 0 | 0.0 | 1.6 | 0.00 | 0.00 | 0.00 | 80 | 1011.8 |
| 20260507035039 | 11 | 0 | 0.0 | 1.6 | 0.00 | 0.00 | 0.00 | 79 | 1011.7 |
| 20260507034554 | 11 | 0 | 0.0 | 3.2 | 0.00 | 0.00 | 0.00 | 79 | 1011.6 |
| 20260507034040 | 11 | 0 | 0.0 | 3.2 | 0.00 | 0.00 | 0.00 | 79 | 1011.5 |
| 20260507033540 | 11 | 0 | 0.0 | 3.2 | 0.00 | 0.00 | 0.00 | 79 | 1011.6 |
| 20260507033052 | 11 | 0 | 0.0 | 3.2 | 0.00 | 0.00 | 0.00 | 79 | 1011.5 |
| 20260507032540 | 11 | 0 | 0.0 | 3.2 | 0.00 | 0.00 | 0.00 | 79 | 1011.5 |
| 20260507032039 | 11 | 0 | 0.0 | 3.2 | 0.00 | 0.00 | 0.00 | 79 | 1011.5 |
| 20260507031554 | 11 | 0 | 0.0 | 4.8 | 0.00 | 0.00 | 0.00 | 79 | 1011.5 |
| 20260507031039 | 11 | 0 | 0.0 | 4.8 | 0.00 | 0.00 | 0.00 | 79 | 1011.4 |
| 20260507030539 | 11 | 269 | 0.0 | 4.8 | 0.00 | 0.00 | 0.00 | 79 | 1011.3 |
| 20260507030049 | 11 | 302 | 0.0 | 4.8 | 0.00 | 0.00 | 0.00 | 79 | 1011.3 |
| 20260507025540 | 11 | 211 | 0.0 | 6.4 | 0.00 | 0.00 | 0.00 | 79 | 1011.2 |
| 20260507025040 | 11 | 0 | 0.0 | 6.4 | 0.00 | 0.00 | 0.00 | 80 | 1011.2 |
| 20260507024553 | 11 | 318 | 0.0 | 4.8 | 0.00 | 0.00 | 0.00 | 80 | 1011.2 |
| 20260507024040 | 11 | 242 | 0.0 | 4.8 | 0.00 | 0.00 | 0.00 | 80 | 1011.2 |
| 20260507023540 | 11 | 0 | 0.0 | 9.7 | 0.00 | 0.00 | 0.00 | 80 | 1011.2 |
| 20260507023103 | 11 | 215 | 0.0 | 9.7 | 0.00 | 0.00 | 0.00 | 80 | 1011.2 |
| 20260507022540 | 11 | 0 | 0.0 | 9.7 | 0.00 | 0.00 | 0.00 | 80 | 1011.1 |
| 20260507022040 | 11 | 0 | 3.2 | 9.7 | 0.00 | 0.00 | 0.00 | 80 | 1011.1 |
| 20260507021550 | 11 | 0 | 0.0 | 9.7 | 0.00 | 0.00 | 0.00 | 80 | 1011.1 |
| 20260507021040 | 11 | 0 | 0.0 | 9.7 | 0.00 | 0.00 | 0.00 | 80 | 1011.2 |
| 20260507020540 | 11 | 0 | 0.0 | 6.4 | 0.00 | 0.00 | 0.00 | 80 | 1011.2 |
| 20260507020059 | 11 | 0 | 0.0 | 3.2 | 0.00 | 0.00 | 0.00 | 80 | 1011.1 |
| 20260507015539 | 11 | 263 | 0.0 | 8.0 | 0.00 | 0.00 | 0.00 | 80 | 1011.1 |
| 20260507015040 | 11 | 0 | 0.0 | 8.0 | 0.00 | 0.00 | 0.00 | 80 | 1011.1 |
| 20260507014546 | 12 | 0 | 0.0 | 8.0 | 0.00 | 0.00 | 0.00 | 80 | 1011.1 |
| 20260507014040 | 12 | 0 | 0.0 | 4.8 | 0.00 | 0.00 | 0.00 | 80 | 1011.0 |
| 20260507013541 | 12 | 0 | 0.0 | 4.8 | 0.00 | 0.00 | 0.00 | 79 | 1011.0 |
| 20260507013047 | 12 | 312 | 0.0 | 4.8 | 0.00 | 0.00 | 0.00 | 80 | 1011.0 |
| 20260507012546 | 12 | 0 | 0.0 | 0.0 | 0.00 | 0.00 | 0.00 | 80 | 1011.0 |
| 20260507012040 | 12 | 0 | 0.0 | 1.6 | 0.00 | 0.00 | 0.00 | 80 | 1011.0 |
| 20260507011548 | 12 | 0 | 0.0 | 3.2 | 0.00 | 0.00 | 0.00 | 80 | 1011.0 |
| 20260507011039 | 12 | 0 | 0.0 | 9.7 | 0.00 | 0.00 | 0.00 | 80 | 1011.0 |
| 20260507010540 | 12 | 0 | 0.0 | 9.7 | 0.00 | 0.00 | 0.00 | 80 | 1011.0 |
| 20260507010051 | 12 | 144 | 3.2 | 9.7 | 0.00 | 0.00 | 0.00 | 80 | 1010.9 |
| 20260507005540 | 12 | 0 | 1.6 | 6.4 | 0.00 | 0.00 | 0.00 | 80 | 1010.9 |
| 20260507005041 | 12 | 257 | 0.0 | 6.4 | 0.00 | 0.00 | 0.00 | 80 | 1010.9 |
| 20260507004551 | 12 | 0 | 0.0 | 9.7 | 0.00 | 0.00 | 0.00 | 80 | 1010.9 |
| 20260507004039 | 12 | 251 | 1.6 | 9.7 | 0.00 | 0.00 | 0.00 | 80 | 1010.8 |
| 20260507003541 | 12 | 254 | 1.6 | 8.0 | 0.00 | 0.00 | 0.00 | 80 | 1010.7 |
| 20260507003106 | 12 | 213 | 1.6 | 8.0 | 0.00 | 0.00 | 0.00 | 80 | 1010.7 |
| 20260507002545 | 12 | 233 | 1.6 | 8.0 | 0.00 | 0.00 | 0.00 | 79 | 1010.7 |
| 20260507002042 | 12 | 307 | 1.6 | 8.0 | 0.00 | 0.00 | 0.00 | 79 | 1010.7 |
| 20260507001609 | 12 | 0 | 0.0 | 8.0 | 0.00 | 0.00 | 0.00 | 79 | 1010.6 |
| 20260507001041 | 12 | 293 | 1.6 | 11.3 | 0.00 | 0.00 | 0.00 | 79 | 1010.7 |
| 20260507000543 | 12 | 291 | 1.6 | 11.3 | 0.00 | 0.00 | 0.00 | 80 | 1010.8 |
| 20260507000047 | 12 | 232 | 1.6 | 12.9 | 0.00 | 0.00 | 0.00 | 80 | 1010.8 |
| 20260506235540 | 12 | 0 | 3.2 | 12.9 | 0.00 | 0.00 | 0.00 | 79 | 1010.8 |
| 20260506235039 | 12 | 0 | 0.0 | 6.4 | 0.00 | 0.00 | 0.00 | 79 | 1010.8 |
| 20260506234551 | 12 | 286 | 1.6 | 9.7 | 0.00 | 0.00 | 0.00 | 79 | 1010.8 |
| 20260506234040 | 12 | 331 | 3.2 | 9.7 | 0.00 | 0.00 | 0.00 | 79 | 1010.8 |
| 20260506233540 | 12 | 0 | 0.0 | 4.8 | 0.00 | 0.00 | 0.00 | 79 | 1010.7 |
| 20260506233052 | 12 | 240 | 0.0 | 9.7 | 0.00 | 0.00 | 0.00 | 79 | 1010.7 |
| 20260506232539 | 12 | 202 | 0.0 | 9.7 | 0.00 | 0.00 | 0.00 | 79 | 1010.7 |
| 20260506232040 | 12 | 157 | 1.6 | 9.7 | 0.00 | 0.00 | 0.00 | 79 | 1010.7 |
| 20260506231554 | 12 | 0 | 1.6 | 9.7 | 0.00 | 0.00 | 0.00 | 79 | 1010.6 |
| 20260506231040 | 12 | 280 | 1.6 | 8.0 | 0.00 | 0.00 | 0.00 | 79 | 1010.7 |
| 20260506230540 | 12 | 269 | 0.0 | 16.1 | 0.00 | 0.00 | 0.00 | 79 | 1010.7 |
| 20260506230107 | 12 | 219 | 0.0 | 16.1 | 0.00 | 0.00 | 0.00 | 79 | 1010.6 |
| 20260506225557 | 12 | 264 | 3.2 | 20.9 | 0.00 | 0.00 | 0.00 | 79 | 1010.6 |
| 20260506225040 | 12 | 221 | 3.2 | 20.9 | 0.00 | 0.00 | 0.00 | 78 | 1010.3 |
| 20260506224548 | 13 | 288 | 4.8 | 16.1 | 0.00 | 0.00 | 0.00 | 78 | 1010.2 |